Overview Statistics Trail Chart Weather Telemetry Raw packets
 

This is the latest recevied weather packets stored in our database for station/object N2ZVN. If no packets are shown the sender has not sent any weather packets the latest 10 day(s).

<< 109 110 111 112 113 114 >>
Time Temp. Humidity Pressure Rain* Wind** Luminosity Snow
1787880858 18.89° C 94% 1015 hPa 0 mm - 0 W/m² -
1787880557 18.89° C 93% 1015 hPa 0 mm - 0 W/m² -
1787880259 18.89° C 92% 1014.6 hPa 0 mm - 0 W/m² -
1787879950 19.44° C 92% 1014.7 hPa 0 mm - 0 W/m² -
1787879646 19.44° C 91% 1014.7 hPa 0 mm - 0 W/m² -
1787879341 19.44° C 89% 1014.5 hPa 0 mm - 0 W/m² -
1787879038 20° C 88% 1014.5 hPa 0 mm - 0 W/m² -
1787878738 20° C 88% 1014.5 hPa 0 mm - 0 W/m² -
1787878437 20.56° C 87% 1014.2 hPa 0 mm - 0 W/m² -
1787878133 20.56° C 87% 1014.2 hPa 0 mm - 0 W/m² -
1787877828 21.11° C 83% 1014.1 hPa 0 mm - 0 W/m² -
1787877523 21.11° C 81% 1014.1 hPa 0 mm - 0 W/m² -
1787877220 21.11° C 81% 1014 hPa 0 mm - 0 W/m² -
1787876919 20.56° C 83% 1013.9 hPa 0 mm - 0 W/m² -
1787876615 20.56° C 89% 1013.7 hPa 0 mm - 0 W/m² -
1787876314 20° C 87% 1013.5 hPa 0 mm - 0 W/m² -
1787876013 20° C 92% 1013.4 hPa 0 mm - 0 W/m² -
1787875709 20° C 93% 1013.3 hPa 0 mm - 0 W/m² -
1787875407 20.56° C 92% 1013.3 hPa 0 mm - 1 W/m² -
1787875107 20.56° C 92% 1013.3 hPa 0 mm - 1 W/m² -
1787874801 20.56° C 92% 1013.3 hPa 0 mm - 2 W/m² -
1787874500 21.11° C 92% 1013.3 hPa 0 mm - 3 W/m² -
1787874195 21.11° C 91% 1013.1 hPa 0 mm - 5 W/m² -
1787873890 21.67° C 90% 1013.1 hPa 0 mm - 6 W/m² -
1787873589 22.22° C 89% 1012.8 hPa 0 mm - 8 W/m² -

* Rain latest hour (hover to see other rain measurements)
** Current wind speed in m/s (hover to see current wind gust speed)